When you browse on this site, cookies collect data to enhance your experience and personalize the content and advertising you see.
Visit our Privacy Policy to learn more. By continuing to use the site, you agree to this use of cookies and data.
  • In Portugal
  • List of Countries
  • For 7 days
  • Water Temperature
  • Satellite Maps
  • Weather Map
  • Weather Widgets
  • user-avatar
    Login

    Hourly Weather Salzburg

    Today, 23 May, Thursday

    Time Temperature Precipitation Wind Pressure Humidity
    00:00 +3°C° 0.1 mm 1 mps 626 mmHg 98%
    01:00 +3°C° 0.1 mm 1 mps 626 mmHg 98%
    02:00 +3°C° 0.1 mm 1 mps 626 mmHg 98%
    03:00 +3°C° 0.1 mm 1 mps 626 mmHg 97%
    04:00 +2°C° 0.1 mm 0 mps 626 mmHg 97%
    05:00 +3°C° 0.1 mm 0 mps 626 mmHg 96%
    06:00 +4°C° 0.1 mm 1 mps 627 mmHg 94%
    07:00 +5°C° 0.1 mm 1 mps 627 mmHg 92%
    08:00 +6°C° 0.1 mm 1 mps 627 mmHg 88%
    09:00 +7°C° 0.1 mm 1 mps 627 mmHg 83%
    10:00 +8°C° 0.1 mm 1 mps 628 mmHg 79%
    11:00 +9°C° 0 mm 1 mps 628 mmHg 72%
    12:00 +10°C° 0 mm 1 mps 628 mmHg 66%
    13:00 +12°C° 0 mm 2 mps 628 mmHg 59%
    14:00 +12°C° 0 mm 2 mps 628 mmHg 57%
    15:00 +12°C° 0 mm 2 mps 628 mmHg 55%
    16:00 +12°C° 0 mm 2 mps 628 mmHg 52%
    17:00 +10°C° 0 mm 2 mps 627 mmHg 62%
    18:00 +9°C° 0 mm 1 mps 626 mmHg 72%
    19:00 +7°C° 0 mm 1 mps 626 mmHg 81%
    20:00 +6°C° 0 mm 1 mps 626 mmHg 85%
    21:00 +4°C° 0 mm 1 mps 625 mmHg 89%
    22:00 +3°C° 0 mm 1 mps 625 mmHg 93%
    23:00 +2°C° 0 mm 1 mps 625 mmHg 93%

    Tomorrow, 24 May, Friday

    Time Temperature Precipitation Wind Pressure Humidity
    00:00 +2°C° 0 mm 1 mps 625 mmHg 93%
    01:00 +2°C° 0 mm 1 mps 625 mmHg 93%
    02:00 +2°C° 0 mm 1 mps 625 mmHg 91%
    03:00 +2°C° 0 mm 1 mps 625 mmHg 90%
    04:00 +2°C° 0 mm 1 mps 624 mmHg 88%
    05:00 +4°C° 0 mm 1 mps 625 mmHg 79%
    06:00 +5°C° 0 mm 0 mps 626 mmHg 69%
    07:00 +8°C° 0 mm 0 mps 627 mmHg 59%
    08:00 +9°C° 0 mm 0 mps 627 mmHg 54%
    09:00 +12°C° 0 mm 1 mps 627 mmHg 48%
    10:00 +14°C° 0 mm 1 mps 628 mmHg 42%
    11:00 +14°C° 0 mm 1 mps 628 mmHg 42%
    12:00 +15°C° 0 mm 2 mps 628 mmHg 42%
    13:00 +16°C° 0 mm 2 mps 628 mmHg 42%
    14:00 +15°C° 0 mm 2 mps 627 mmHg 45%
    15:00 +15°C° 0 mm 2 mps 627 mmHg 48%
    16:00 +15°C° 0 mm 2 mps 627 mmHg 52%
    17:00 +13°C° 0 mm 2 mps 626 mmHg 62%
    18:00 +12°C° 0 mm 1 mps 626 mmHg 73%
    19:00 +10°C° 0 mm 1 mps 625 mmHg 83%
    20:00 +8°C° 0 mm 1 mps 625 mmHg 87%
    21:00 +7°C° 0 mm 1 mps 625 mmHg 91%
    22:00 +6°C° 0 mm 1 mps 624 mmHg 95%
    23:00 +5°C° 0 mm 1 mps 624 mmHg 95%

    Day after tomorrow, 25 May, Saturday

    Time Temperature Precipitation Wind Pressure Humidity
    00:00 +5°C° 0 mm 1 mps 624 mmHg 95%
    01:00 +5°C° 0 mm 1 mps 624 mmHg 95%
    02:00 +5°C° 0 mm 1 mps 624 mmHg 95%
    03:00 +4°C° 0 mm 1 mps 624 mmHg 95%
    04:00 +4°C° 0 mm 1 mps 624 mmHg 95%
    05:00 +6°C° 0 mm 1 mps 625 mmHg 88%
    06:00 +8°C° 0 mm 0 mps 625 mmHg 81%
    07:00 +10°C° 0 mm 0 mps 626 mmHg 74%
    08:00 +11°C° 0 mm 0 mps 627 mmHg 67%
    09:00 +13°C° 0 mm 1 mps 627 mmHg 61%
    10:00 +15°C° 0 mm 1 mps 628 mmHg 55%
    11:00 +15°C° 0.4 mm 1 mps 628 mmHg 59%
    12:00 +15°C° 0.4 mm 1 mps 627 mmHg 62%
    13:00 +15°C° 0.4 mm 1 mps 627 mmHg 66%
    14:00 +14°C° 1.5 mm 1 mps 627 mmHg 73%
    15:00 +13°C° 1.5 mm 1 mps 626 mmHg 79%
    16:00 +12°C° 1.5 mm 1 mps 625 mmHg 85%
    17:00 +11°C° 1.3 mm 1 mps 625 mmHg 89%
    18:00 +10°C° 1.3 mm 1 mps 625 mmHg 92%
    19:00 +9°C° 1.3 mm 1 mps 625 mmHg 95%
    20:00 +8°C° 0.2 mm 1 mps 625 mmHg 95%
    21:00 +7°C° 0.2 mm 1 mps 625 mmHg 95%
    22:00 +7°C° 0.2 mm 1 mps 625 mmHg 95%
    23:00 +6°C° 0 mm 1 mps 625 mmHg 95%

    26 May, Sunday

    Time Temperature Precipitation Wind Pressure Humidity
    00:00 +6°C° 0 mm 1 mps 625 mmHg 95%
    01:00 +6°C° 0 mm 1 mps 624 mmHg 95%
    02:00 +6°C° 0 mm 1 mps 624 mmHg 95%
    03:00 +5°C° 0 mm 1 mps 624 mmHg 95%
    04:00 +5°C° 0 mm 1 mps 624 mmHg 95%
    05:00 +7°C° 0 mm 1 mps 624 mmHg 94%
    06:00 +8°C° 0 mm 1 mps 625 mmHg 92%
    07:00 +9°C° 0 mm 1 mps 626 mmHg 91%
    08:00 +10°C° 0.2 mm 1 mps 626 mmHg 89%
    09:00 +10°C° 0.2 mm 1 mps 626 mmHg 86%
    10:00 +11°C° 0.2 mm 1 mps 627 mmHg 84%
    11:00 +12°C° 0.4 mm 1 mps 627 mmHg 81%
    12:00 +13°C° 0.4 mm 2 mps 627 mmHg 78%
    13:00 +13°C° 0.4 mm 2 mps 627 mmHg 75%
    14:00 +13°C° 0.5 mm 2 mps 627 mmHg 78%
    15:00 +12°C° 0.5 mm 2 mps 627 mmHg 80%
    16:00 +12°C° 0.5 mm 2 mps 626 mmHg 83%
    17:00 +10°C° 0.2 mm 2 mps 626 mmHg 86%
    18:00 +10°C° 0.2 mm 1 mps 626 mmHg 90%
    19:00 +9°C° 0.2 mm 1 mps 626 mmHg 94%
    20:00 +9°C° 0 mm 1 mps 626 mmHg 95%
    21:00 +7°C° 0 mm 0 mps 626 mmHg 96%
    22:00 +6°C° 0 mm 0 mps 626 mmHg 97%
    23:00 +5°C° 0 mm 0 mps 625 mmHg 97%

    27 May, Monday

    Time Temperature Precipitation Wind Pressure Humidity
    00:00 +5°C° 0 mm 0 mps 625 mmHg 97%
    01:00 +5°C° 0 mm 1 mps 625 mmHg 97%
    02:00 +5°C° 0.1 mm 1 mps 625 mmHg 96%
    03:00 +5°C° 0.1 mm 1 mps 624 mmHg 95%
    04:00 +5°C° 0.1 mm 1 mps 624 mmHg 95%
    05:00 +6°C° 0.1 mm 1 mps 625 mmHg 93%
    06:00 +7°C° 0.1 mm 0 mps 625 mmHg 91%
    07:00 +8°C° 0.1 mm 0 mps 625 mmHg 89%
    08:00 +10°C° 0.1 mm 0 mps 626 mmHg 81%
    09:00 +11°C° 0.1 mm 0 mps 626 mmHg 73%
    10:00 +14°C° 0.1 mm 1 mps 627 mmHg 66%
    11:00 +13°C° 0.6 mm 1 mps 627 mmHg 70%
    12:00 +13°C° 0.6 mm 1 mps 626 mmHg 75%
    13:00 +12°C° 0.6 mm 1 mps 625 mmHg 80%
    14:00 +12°C° 1.5 mm 1 mps 625 mmHg 83%
    15:00 +11°C° 1.5 mm 1 mps 625 mmHg 87%
    16:00 +11°C° 1.5 mm 1 mps 624 mmHg 90%
    17:00 +10°C° 0.9 mm 1 mps 624 mmHg 92%
    18:00 +10°C° 0.9 mm 1 mps 623 mmHg 93%
    19:00 +9°C° 0.9 mm 1 mps 623 mmHg 94%
    20:00 +8°C° 0.2 mm 1 mps 623 mmHg 95%
    21:00 +8°C° 0.2 mm 1 mps 623 mmHg 95%
    22:00 +7°C° 0.2 mm 1 mps 622 mmHg 95%
    23:00 +7°C° 0 mm 1 mps 622 mmHg 95%

    28 May, Tuesday

    Time Temperature Precipitation Wind Pressure Humidity
    00:00 +7°C° 0 mm 1 mps 622 mmHg 94%
    01:00 +6°C° 0 mm 1 mps 621 mmHg 94%
    02:00 +6°C° 0 mm 1 mps 621 mmHg 94%
    03:00 +5°C° 0 mm 1 mps 621 mmHg 95%
    04:00 +5°C° 0 mm 1 mps 620 mmHg 95%
    05:00 +6°C° 0 mm 1 mps 621 mmHg 93%
    06:00 +8°C° 0 mm 1 mps 621 mmHg 90%
    07:00 +9°C° 0 mm 1 mps 621 mmHg 88%
    08:00 +11°C° 0.3 mm 1 mps 622 mmHg 82%
    09:00 +12°C° 0.3 mm 1 mps 622 mmHg 76%
    10:00 +14°C° 0.3 mm 1 mps 622 mmHg 71%
    11:00 +14°C° 0.6 mm 1 mps 622 mmHg 71%
    12:00 +14°C° 0.6 mm 1 mps 622 mmHg 71%
    13:00 +15°C° 0.6 mm 1 mps 622 mmHg 72%
    14:00 +14°C° 0.8 mm 1 mps 621 mmHg 74%
    15:00 +14°C° 0.8 mm 1 mps 621 mmHg 75%
    16:00 +14°C° 0.8 mm 1 mps 621 mmHg 77%
    17:00 +13°C° 0.9 mm 1 mps 620 mmHg 82%
    18:00 +12°C° 0.9 mm 1 mps 620 mmHg 87%
    19:00 +10°C° 0.9 mm 1 mps 620 mmHg 92%
    20:00 +10°C° 0.9 mm 1 mps 620 mmHg 94%
    21:00 +9°C° 0.9 mm 1 mps 620 mmHg 95%
    22:00 +8°C° 0.9 mm 1 mps 620 mmHg 96%
    23:00 +7°C° 4.2 mm 1 mps 620 mmHg 97%
    Show more